STARLINK-30795, 58118

Orbit data source: Space-Track

STARLINK-30795, 58118 is a payload satellite owned by SpaceX/Seattle (US) in LEO that was launched on Sun, 22 Oct 2023 UTC via an FALCON 9 launch vehicle from the Air Force Eastern Test Range (AFETR). Payload-class satellites include a variety of spacecraft equipped with specific instruments for various scientific and technological missions. These include communications satellites like Starlink; space stations such as the ISS; scientific satellites like the Hubble; Earth observation satellites from companies like Planet Labs, Umbra, and HawkEye 360; GPS; miniature CubeSats for education and research; and military/defense satellites.

Loading next visibility...
Identifier
58118, 2023-162A
Orbit
LEO
Country
Flag of USUS
Related business
Manufacturer
SpaceX/Seattle
Mission
Operational Commercial Communications
Bus & Motor
STARLINK V2M, Unknown motor
Mass
730 kg wet, ~700 kg dry
Launch date (UTC)
2023-10-22 (2 years ago)
Launch vehicle
FALCON 9
Launch site
Air Force Eastern Test Range (AFETR)
Object type
Payload
Rocket body
Debris
Shape & HBR
Box + 2 Pan, 17.7 m
Radar Cross Section
33.884 m², Large (>1 m²)

Expand to show TLE details & history
Last TLE update: 22 hours ago

TLE from 22 hours ago
0 STARLINK-30795
1 58118U 23162A   25348.69324817  .00000939  00000-0  84622-4 0  9996
2 58118  43.0030 235.0032 0001066 274.6325  85.4395 15.02508925119510
Epoch: 2025-12-14T16:38Z
TLE epoch observation values (Epoch: 2025-12-14T16:38:16.641Z)
Latitude
-0.00007°
Longitude
-98.16872°
Altitude
558.882 km
Speed
7.584 km/s
True Right ascension
15h 40m 00s
True Declination
0° 00' 00"
Sunlit
Object was in daylight at epoch
Visualization orbit readout
Latitude
Unknown
Longitude
Unknown
Altitude
Unknown
Speed
Unknown
Apparent Right ascension
Unknown
Apparent Declination
Unknown
Sunlit
N/A
Visualization observer readout
Local Sidereal Time
13:25:40
Azimuth
Unknown
Elevation
Unknown
Doppler factor
Unknown
Orbital elements
Apogee altitude
561.826 km
Perigee altitude
560.347 km
Semi-major axis
6,939.223 km
Eccentricity
0.00011
Inclination
43.003°
RAAN
235.0032°
Arg. of periapsis
274.6325°
True anomaly
85.45168°
Mean anomaly
85.4395°
Eccentric anomaly
85.44559°
Mean motion
3.75471 °/min
Orbital period
95.88 mins
BSTAR
0.000084622
Loading maneuver chart data...
Computing Atmospheric mass density...
Loading historical data...
Loading historical data...
Loading historical data...
Loading historical data...
Loading historical data...
Loading historical data...
Loading historical data...

Documentation

Showing up to 5 results
|